User: anonymous   Login
Location: Brno
(49.2000°N, 16.6330°E)
Time: 20:09:23
(UTC+02:00)
Language:

Cosmos 1459 Rocket - Orbit

View from above orbital plane
View from above orbital plane
View from above satellite
View from above satellite

Ground track
Ground track

The orbit data is extracted from the following two-line orbital elements,

1 14059U 83042B   16146.93794880 +.00000093 +00000-0 +76894-4 0  9992
2 14059 082.9710 349.3542 0041200 274.6748 194.6442 13.78556285662131
Epoch (UTC): 25 May 2016 22:30:38
Eccentricity: 0.0041200
inclination: 82.9710°
perigee height: 939 km
apogee height: 999 km
right ascension of ascending node: 349.3542°
argument of perigee: 274.6748°
revolutions per day: 13.78556285
mean anomaly at epoch: 194.6442°
orbit number at epoch: 66213

The dashed part of the orbit path shows where the satellite is in the earth's shadow,  

DLR